Location: Powder Track
(41.8531°N, 72.3584°W)
Time: 00:17:39
(UTC+00:00)

Vanguard 1 Rocket - Pass Details

Date: 15 August 2021
Orbit: 650 x 4226 km, 34.3° (Epoch: 19 September)

Event Time Altitude Azimuth Distance (km) Brightness Sun altitude
Rises 08:55:03 0° 207° (SSW) 7,274 - -11.4°
Exits shadow 08:55:05 - 207° (SSW) 7,271 11.5 -11.4°
Reaches altitude 10° 09:00:08 10° 199° (SSW) 6,643 11.3 -10.6°
Maximum altitude 09:20:47 38° 140° (SE) 5,393 11.4 -7.2°
Drops below altitude 10° 09:41:45 10° 83° (E) 6,825 13.5 -3.6°
Sets 09:46:55 0° 77° (ENE) 7,494 14.6 -2.7°
